Location: Bay Ridge
(40.6340°N, 74.0146°W)
Time: 21:25:40
(UTC+00:00)

COSMOS 2487 - Pass Details

Date: 15 November 2019
Orbit: 444 x 448 km, 74.7° (Epoch: 07 December)

Event Time Altitude Azimuth Distance (km) Brightness Sun altitude
Rises 10:34:04 0° 189° (S) 2,423 6.2 -13.1°
Reaches altitude 10° 10:36:09 10° 186° (S) 1,558 5.2 -12.7°
Maximum altitude 10:39:32 60° 105° (ESE) 513 3.0 -12.1°
Drops below altitude 10° 10:42:56 10° 25° (NNE) 1,571 5.3 -11.5°
Sets 10:45:02 0° 22° (NNE) 2,447 6.2 -11.1°
